17P/Holmes
Epoch 2007 May 20.0 TT = JDT 2454240.5
T 2007 May 4.4995 TT MPC
q 2.053169 (2000.0) P Q
n 0.1432508 Peri. 24.2585 +0.9756506 +0.1267918
a 3.617468 Node 326.8675 -0.2124462 +0.7491399
e 0.432429 Incl. 19.1132 +0.0545208 +0.6501640
P 6.88
From 139 observations 1964-2001, mean residual 0".7. Nongravitational
parameters A1 = +0.19, A2 = +0.0287.
Elements are also available for the current standard epoch:
17P/Holmes Epoch 2008 May 14.0 TT = JDT 2454600.5 T 2007 May 4.5695 TT MPC q 2.053207 (2000.0) P Q n 0.1431566 Peri. 24.2856 +0.9756833 +0.1264771 a 3.619055 Node 326.8586 -0.2122320 +0.7492204 e 0.432668 Incl. 19.1134 +0.0547687 +0.6501325 P 6.88An explanation of the orbital elements is available.
These orbital elements are also available in forms suitable for loading into a number of popular planetarium-type software programs.
Personalized ephemerides for this (and other) objects may be generated using the Minor Planet & Comet Ephemeris Service.
Recent magnitude estimates for this comet (as reported to the ICQ) may be available.
Date TT R. A. (2000) Decl. Delta r Elong. Phase m1 m2WARNING! 2008 04 14 04 56.59 +36 22.7 3.652 3.166 53.8 14.8 20.3 22.1 2008 04 19 05 04.64 +36 13.4 3.728 3.187 50.7 14.1 20.4 22.2 2008 04 24 05 12.73 +36 03.9 3.801 3.209 47.5 13.4 20.5 22.2 2008 04 29 05 20.85 +35 54.1 3.871 3.230 44.4 12.6 20.6 22.2 2008 05 04 05 29.00 +35 43.9 3.939 3.251 41.4 11.8 20.7 22.3 2008 05 09 05 37.16 +35 33.2 4.004 3.272 38.3 11.0 20.7 22.3 2008 05 14 05 45.31 +35 22.0 4.066 3.293 35.3 10.2 20.8 22.3 2008 05 19 05 53.45 +35 10.3 4.125 3.314 32.3 9.4 20.9 22.3 2008 05 24 06 01.56 +34 57.8 4.180 3.335 29.4 8.6 21.0 22.3 2008 05 29 06 09.63 +34 44.7 4.232 3.356 26.5 7.7 21.0 22.3 2008 06 03 06 17.66 +34 30.9 4.281 3.377 23.7 6.9 21.1 22.3 2008 06 08 06 25.64 +34 16.4 4.326 3.397 20.9 6.1 21.1 22.3 2008 06 13 06 33.55 +34 01.3 4.368 3.418 18.3 5.3 21.2 22.3 2008 06 18 06 41.39 +33 45.4 4.405 3.438 15.8 4.6 21.3 22.3 2008 06 23 06 49.14 +33 28.8 4.439 3.459 13.5 3.9 21.3 22.3 2008 06 28 06 56.81 +33 11.6 4.469 3.479 11.7 3.4 21.4 22.3 2008 07 03 07 04.38 +32 53.8 4.494 3.499 10.5 3.0 21.4 22.3 2008 07 08 07 11.85 +32 35.4 4.516 3.520 10.1 2.9 21.5 22.3 2008 07 13 07 19.20 +32 16.5 4.533 3.540 10.7 3.1 21.5 22.3 2008 07 18 07 26.44 +31 57.1 4.546 3.559 12.2 3.5 21.6 22.4 2008 07 23 07 33.54 +31 37.2 4.555 3.579 14.2 4.0 21.6 22.4 2008 07 28 07 40.52 +31 17.0 4.560 3.599 16.6 4.6 21.6 22.5 2008 08 02 07 47.35 +30 56.5 4.561 3.619 19.3 5.3 21.7 22.5 2008 08 07 07 54.03 +30 35.8 4.557 3.638 22.2 6.0 21.7 22.6 2008 08 12 08 00.56 +30 14.9 4.549 3.658 25.2 6.8 21.7 22.6 2008 08 17 08 06.92 +29 54.0 4.537 3.677 28.3 7.5 21.8 22.7 2008 08 22 08 13.11 +29 33.1 4.520 3.696 31.5 8.2 21.8 22.7 2008 08 27 08 19.12 +29 12.3 4.500 3.715 34.8 8.9 21.8 22.7 2008 09 01 08 24.93 +28 51.8 4.475 3.734 38.2 9.6 21.8 22.7 2008 09 06 08 30.55 +28 31.6 4.447 3.753 41.6 10.3 21.9 22.8 2008 09 11 08 35.95 +28 11.8 4.414 3.772 45.1 10.9 21.9 22.8 2008 09 16 08 41.13 +27 52.6 4.378 3.790 48.7 11.5 21.9 22.8 2008 09 21 08 46.07 +27 34.0 4.339 3.809 52.3 12.0 21.9 22.8 2008 09 26 08 50.77 +27 16.2 4.296 3.827 56.0 12.5 21.9 22.8 2008 10 01 08 55.20 +26 59.3 4.250 3.846 59.8 13.0 21.9 22.8 2008 10 06 08 59.36 +26 43.4 4.201 3.864 63.7 13.4 21.9 22.8 2008 10 11 09 03.22 +26 28.6 4.149 3.882 67.7 13.8 21.9 22.8 2008 10 16 09 06.77 +26 15.1 4.096 3.900 71.7 14.0 21.9 22.8 2008 10 21 09 09.99 +26 03.0 4.040 3.917 75.9 14.3 21.9 22.8 2008 10 26 09 12.87 +25 52.3 3.982 3.935 80.1 14.4 21.9 22.8 2008 10 31 09 15.38 +25 43.2 3.923 3.953 84.5 14.5 21.9 22.8 2008 11 05 09 17.50 +25 35.8 3.863 3.970 88.9 14.5 21.9 22.7 2008 11 10 09 19.21 +25 30.1 3.803 3.987 93.5 14.4 21.9 22.7 2008 11 15 09 20.49 +25 26.2 3.743 4.005 98.1 14.2 21.9 22.7 2008 11 20 09 21.34 +25 24.0 3.684 4.022 102.9 13.9 21.9 22.6 2008 11 25 09 21.72 +25 23.8 3.626 4.039 107.8 13.5 21.9 22.6 2008 11 30 09 21.62 +25 25.2 3.570 4.056 112.8 13.0 21.9 22.6 2008 12 05 09 21.03 +25 28.4 3.516 4.072 117.9 12.3 21.9 22.5 2008 12 10 09 19.95 +25 33.1 3.466 4.089 123.2 11.6 21.9 22.5 2008 12 15 09 18.39 +25 39.2 3.420 4.105 128.5 10.8 21.9 22.4 2008 12 20 09 16.34 +25 46.4 3.377 4.122 134.0 9.9 21.9 22.4 2008 12 25 09 13.84 +25 54.5 3.341 4.138 139.5 8.9 21.9 22.3 2008 12 30 09 10.89 +26 03.2 3.309 4.154 145.1 7.8 21.9 22.2 2009 01 04 09 07.55 +26 12.0 3.285 4.170 150.7 6.6 21.9 22.2 2009 01 09 09 03.88 +26 20.6 3.267 4.186 156.2 5.4 21.9 22.1 2009 01 14 08 59.92 +26 28.6 3.257 4.201 161.7 4.2 21.9 22.1 2009 01 19 08 55.76 +26 35.7 3.254 4.217 166.7 3.1 21.9 22.0 2009 01 24 08 51.47 +26 41.6 3.259 4.233 170.4 2.2 22.0 2009 01 29 08 47.13 +26 46.0 3.272 4.248 171.2 2.0 22.0 2009 02 03 08 42.83 +26 48.6 3.293 4.263 168.4 2.7 22.0 2009 02 08 08 38.65 +26 49.3 3.322 4.278 163.8 3.7 22.1 22.1 2009 02 13 08 34.67 +26 48.1 3.359 4.293 158.5 4.8 22.1 22.2 2009 02 18 08 30.95 +26 44.9 3.403 4.308 153.1 6.0 22.2 22.3 2009 02 23 08 27.56 +26 39.9 3.455 4.323 147.6 7.0 22.2 22.4 2009 02 28 08 24.54 +26 33.1 3.512 4.337 142.1 8.1 22.3 22.5 2009 03 05 08 21.94 +26 24.5 3.576 4.352 136.7 9.0 22.3 22.6 2009 03 10 08 19.77 +26 14.5 3.645 4.366 131.4 9.8 22.4 22.6 2009 03 15 08 18.05 +26 03.0 3.720 4.380 126.1 10.6 22.5 22.7 2009 03 20 08 16.78 +25 50.4 3.798 4.394 121.0 11.2 22.5 22.8 2009 03 25 08 15.97 +25 36.6 3.880 4.408 116.0 11.7 22.6 22.9 2009 03 30 08 15.61 +25 21.9 3.965 4.422 111.0 12.2 22.7 23.0 2009 04 04 08 15.67 +25 06.2 4.052 4.436 106.2 12.5 22.7 23.0 2009 04 09 08 16.15 +24 49.8 4.141 4.449 101.5 12.7 22.8 23.1 2009 04 14 08 17.01 +24 32.7 4.231 4.463 96.8 12.9 22.9 23.1 2009 04 19 08 18.24 +24 14.9 4.322 4.476 92.3 13.0 22.9 23.2 2009 04 24 08 19.82 +23 56.5 4.413 4.489 87.9 12.9 23.0 23.2 2009 04 29 08 21.72 +23 37.5 4.504 4.502 83.5 12.8 23.1 23.3 2009 05 04 08 23.91 +23 18.0 4.594 4.515 79.2 12.7 23.1 23.3 2009 05 09 08 26.38 +22 58.0 4.683 4.528 75.0 12.4 23.2 23.4 2009 05 14 08 29.09 +22 37.4 4.770 4.541 70.9 12.1 23.2 23.4 2009 05 19 08 32.03 +22 16.3 4.856 4.553 66.8 11.8 23.3 23.4This comet gets close to the sun during the period covered in the ephemeris below. Observers are warned to be wary of observing comets near the sun. NEVER point any kind of optical instrument at the sun--instant blindness will be the probable result.